Jackpot

Texas Poker Multi Jackpot System

Kini Telah hadir Jackpot SUPER ROYAL FLUSH

Kini Telah hadir Jackpot 2000 (khusus table VIP keatas).

Ikutilah global jackpot yang tersedia di system kami, dengan system jackpot terbaru dan pertama di indonesia, anda dapat membeli jackpot dengan harga 100 rupiah saja dan menangkan hadiahnya hingga puluhan juta rupiah.

Jackpot bukanlah suatu keharusan untuk dibeli, namun kami memberikan suatu fitur tambahan untuk member tercinta dari www.domino88.asia.

Terdapat tiga pilihan harga jackpot yang bisa anda beli yaitu :100,500,1000 dan 2000(khusus table VIP Keatas) rupiah.

Hadiah dari Multi jackpot system www.domino88.asia

  1. full house x 10 harga jackpot yang anda beli.
      (contoh:anda membeli 1000 maka:1000 X10 = 10.000)
  2. four of kind x 250 harga jackpot yang anda beli
      (contoh:anda membeli 1000 maka:1000 X250 = 250.000)
  3. Straight flush x 1200
      (contoh:anda membeli 1000 maka:1000 X1200 = 1.200.000)
  4. Royal flush x 10000 harga jackpot yang anda beli
      (contoh:anda membeli 1000 maka:1000 X10000 = 10.000.000)
  5. SUPER ROYAL FLUSH x 30000 harga jackpot yang anda beli
      (contoh:anda membeli 1000 maka:1000 X30000 = 30.000.000)

Kondisi kartu

  1. full house adalah kondisi kartu dimana kartu anda dan kartu tengah dengan total 7 kartu bisa mendapatkan nilai 5 kartu dengan kombinasi 1 tris(three of kind) dan 1 pair, contoh 3 kartu 10 dan 2 kartu 5
  2. Four of kind adalah kondisi kartu dimana kartu anda dan kartu tengah dengan total 7 kartu bisa mendapatkan nilai 5 kartu dengan kombinasi 4 kartu yang sama jumlah dan 1 kartu apapun juga contoh anda mendapatkan 4 buah kartu angka 3 dan 1 kartu apapun.
  3. Staright flush adalah kondisi kartu dimana kartu anda dan kartu tengah dengan total 7 kartu bisa mendapatkan nilai 5 kartu dengan kombinasi seri / staright dengan kembang yang sama contoh : urutan kartu dari angka 5, 6, 7, 8 , 9 10 dengan kembang yg sama misalnya as hati
  4. Royal flush adalah kondisi kartu dimana kartu anda dan kartu tengah dengan total 7 kartu bisa mendapatkan nilai 5 kartu dengan kombinasi seri / staright dengan kembang yang sama tetapi kartu tersebut haruslah dimulai dari 10. contoh 10, Queen, Jack, King dan aces dengan kembang yang sama
  5. Super Royal flush adalah kondisi kartu dimana Kedua kartu anda digabung dengan 3 kartu pertama meja haruslah royal flush. contoh kartu anda 10,Queen kembang sama dan 3 kartu pertama meja adalah Jack, King dan aces dengan kembang yang sama

Demikian adalah penjelasan dari Multi Jackpot www.domino88.asia terima kasih dan selamat bermain salam hoki dari kami

Texas Poker Jackpot Winner

TOP SUPER ROYAL FLUSH
No.TanggalNamaPriceWin
126/02 12:26GIACATSuper Royal flush15,000,000
226/02 10:26WAKTARSuper Royal flush15,000,000
326/02 09:52T4DSAREKASuper Royal flush30,000,000
426/02 06:38CUP_13Super Royal flush30,000,000
526/02 05:51SIOMPIETSuper Royal flush3,000,000
TOP ROYAL FLUSH
No.TanggalNamaPriceWin
126/02 12:48S3399SRoyal flush20,000,000
226/02 12:40JUNKKE88Royal flush1,000,000
326/02 12:18JOKESER11Royal flush1,000,000
426/02 12:13A13B613DRoyal flush5,000,000
526/02 12:06BATAVIA23Royal flush1,000,000
TOP STRAIGHT FLUSH
No.TanggalNamaPriceWin
126/02 12:59Q_NONKStraight Flush1,200,000
226/02 12:59K4R4MBI4_CStraight Flush120,000
326/02 12:55J05KAStraight Flush1,200,000
426/02 12:54B72C1EA7Straight Flush120,000
526/02 12:53MULYOREJO7Straight Flush120,000
LATEST JACKPOT
No.TanggalNamaPriceWin
126/02 13:00DONADSFull House5,000
226/02 13:00AT6YNVLZTMFull House1,000
326/02 13:00ABILLO99Full House1,000
426/02 13:00GENOID02Full House1,000
526/02 13:00HANDOK01Full House5,000
626/02 13:00JULPAN01Full House5,000
726/02 13:00S41N41Full House20,000
826/02 13:00SAMI6969Full House5,000
926/02 13:00KAW4SEMIFull House5,000
1026/02 12:59GANDUL97Full House10,000
1126/02 12:59LO7USFour Of A Kind125,000
1226/02 12:59MITHA23Full House1,000
1326/02 12:59G3RIHOKIFull House1,000
1426/02 12:59NAGATATOFull House5,000
1526/02 12:59M8J16DWY4HFull House1,000
1626/02 12:59BLEKEK899Full House10,000
1726/02 12:59TEMPEXERSFull House1,000
1826/02 12:59KUTE94Full House5,000
1926/02 12:59CENENG55Four Of A Kind25,000
2026/02 12:59ARTI84Full House1,000
2126/02 12:59RIET123Full House1,000
2226/02 12:59JISRETFour Of A Kind25,000
2326/02 12:59KEMONCUYYFull House5,000
2426/02 12:59DN40000197Full House1,000
2526/02 12:59EMIDTHEAFull House10,000
2626/02 12:59SONYA46Full House5,000
2726/02 12:59BABCB162Full House10,000
2826/02 12:59Q_NONKStraight Flush1,200,000
2926/02 12:59JOMBLANG66Full House1,000
3026/02 12:59DEBBYRISCAFull House5,000
3126/02 12:59FAHMI23Full House1,000
3226/02 12:59RUDIANTO86Full House5,000
3326/02 12:59KOLONEL168Full House10,000
3426/02 12:59WAONE21Full House10,000
3526/02 12:59NO030884Full House10,000
3626/02 12:59SSB666Full House1,000
3726/02 12:59K4R4MBI4_CStraight Flush120,000
3826/02 12:59YUUUHUFull House10,000
3926/02 12:59ARTO1000Full House1,000
4026/02 12:59MAGELANGANFull House1,000
4126/02 12:59LEKONG15Full House5,000
4226/02 12:59BANTAY02Full House1,000
4326/02 12:59GALL123Full House1,000
4426/02 12:59BCB43A84Full House1,000
4526/02 12:59KUNTHET123Full House5,000
4626/02 12:59RAJOMUNCAKFull House1,000
4726/02 12:59P4USF1LHJWFull House1,000
4826/02 12:59SADIMUFull House1,000
4926/02 12:59CHENGKINGFull House5,000
5026/02 12:59BAKRIROYALFull House5,000

Domino Multi Jackpot System

Ikutilah global jackpot yang tersedia di system kami, dengan system jackpot terbaru dan pertama di indonesia, anda dapat membeli jackpot dengan harga 100 rupiah saja dan menangkan hadiahnya hingga puluhan juta rupiah.

Jackpot bukanlah suatu keharusan untuk dibeli, namun kami memberikan suatu fitur tambahan untuk member tercinta dari www.domino88.asia.

Terdapat tiga pilihan harga jackpot yang bisa anda beli yaitu :100,500 dan 1000 rupiah.

Hadiah dari Multi jackpot system www.domino88.asia

  1. Murni Kecil x 50 harga jackpot yang anda beli.
      (contoh:anda membeli 1000 maka:1000 X 50 = 50.000)
  2. Murni Besar x 50 harga jackpot yang anda beli
      (contoh:anda membeli 1000 maka:1000 X 50 = 50.000)
  3. BALAK x 100 harga jackpot yang anda beli
      (contoh:anda membeli 1000 maka:1000 X 100 = 100.000)
  4. ENAM DEWA x 6666 harga jackpot yang anda beli
      (contoh:anda membeli 1000 maka:1000 X 6666 = 6.666.000)

Demikian adalah penjelasan dari Multi Jackpot www.domino88.asia terima kasih dan selamat bermain salam hoki dari kami

Domino Jackpot Winner

TOP ENAM DEWA
No.TanggalNamaPriceWin
126/02 10:35MADURAAAmurni enam6,666,000
226/02 09:08MERPU65murni enam666,600
326/02 02:22NOAH153murni enam666,600
426/02 00:55RIYOSLAMETmurni enam666,600
526/02 00:28SANDY123murni enam6,666,000
TOP BALAK
No.TanggalNamaPriceWin
126/02 12:57R260balak10,000
226/02 12:57BEBEC98balak100,000
326/02 12:56TEXIANOS66balak100,000
426/02 12:52J0N6335balak100,000
526/02 12:49URIPSONGObalak10,000
LATEST JACKPOT
No.TanggalNamaPriceWin
126/02 12:58BIMASImurni besar50,000
226/02 12:57R260balak10,000
326/02 12:57PIPIA46murni kecil50,000
426/02 12:57BEBEC98balak100,000
526/02 12:56TEXIANOS66balak100,000
626/02 12:55ARYY17murni besar5,000
726/02 12:55O45375975murni besar50,000
826/02 12:54KAMBA123murni kecil50,000
926/02 12:53CIBLEQmurni kecil50,000
1026/02 12:53POKEMONT21murni kecil25,000
1126/02 12:52J0N6335balak100,000
1226/02 12:52AFAN90murni kecil25,000
1326/02 12:50ABAHCECEPmurni besar50,000
1426/02 12:49URIPSONGObalak10,000
1526/02 12:48TETEORE22balak100,000
1626/02 12:48MUSENG99murni besar25,000
1726/02 12:48G6BGKCA6J2murni besar25,000
1826/02 12:48SANDAMmurni kecil50,000
1926/02 12:48HADAHADAmurni besar5,000
2026/02 12:47BEBEC98murni kecil50,000
2126/02 12:47DISINI123murni kecil5,000
2226/02 12:46FEBRIANSYAmurni besar50,000
2326/02 12:45DOBBLE37murni kecil50,000
2426/02 12:45G6BGKCA6J2murni besar25,000
2526/02 12:45GORDAT88murni besar25,000
2626/02 12:45I1R2X9VY8Rmurni besar5,000
2726/02 12:45P3LANGmurni kecil25,000
2826/02 12:45PANTHER123murni besar5,000
2926/02 12:44TOHIR6666murni besar25,000
3026/02 12:43MANCES23murni kecil50,000
3126/02 12:43POTLOT007balak10,000
3226/02 12:43SANDAMmurni kecil50,000
3326/02 12:43MAYOR444balak100,000
3426/02 12:43NAGUKAmurni kecil50,000
3526/02 12:42DIDIKSOmurni kecil25,000
3626/02 12:42QJLKRMFK9Wmurni kecil50,000
3726/02 12:41TONO_PSmurni kecil5,000
3826/02 12:41I1R2X9VY8Rmurni besar5,000
3926/02 12:41WUCINGmurni kecil25,000
4026/02 12:41PANDAUNEmurni kecil25,000
4126/02 12:40SAWERSOmurni besar25,000
4226/02 12:40JAGO2000murni besar5,000
4326/02 12:40B3C3X99balak10,000
4426/02 12:39JIMZRDmurni kecil25,000
4526/02 12:38GENTA58murni kecil25,000
4626/02 12:37SERIA99murni besar25,000
4726/02 12:37PUPHIPOmurni kecil25,000
4826/02 12:35JEGER241balak100,000
4926/02 12:34TITIT808murni kecil50,000
5026/02 12:34BIONDA9999murni kecil50,000

Ceme Multi Jackpot System

Jackpot dilihat dari gabungan kartu pemain dengan kartu bandar. Bandar harus membeli jackpot sebanyak jumlah player yang sedang duduk. Sebagai contoh bila terdapat 3 pemain duduk bermain, dan bandar memutuskan untuk membeli jackpot Rp 1.000, maka pada periode tersebut bandar akan membeli jackpot sebanyak 3xRp1.000 = Rp3.000.

Jackpot bukanlah suatu keharusan untuk dibeli, namun kami memberikan suatu fitur tambahan untuk member tercinta dari www.domino88.asia.

Terdapat tiga pilihan harga jackpot yang bisa anda beli yaitu :100,500 dan 1000 rupiah.

Hadiah dari Multi jackpot system www.domino88.asia

  1. Murni Kecil x 50 harga jackpot yang anda beli.
      (contoh:anda membeli 1000 maka:1000 X 50 = 50.000)
  2. Murni Besar x 50 harga jackpot yang anda beli
      (contoh:anda membeli 1000 maka:1000 X 50 = 50.000)
  3. BALAK x 200 harga jackpot yang anda beli
      (contoh:anda membeli 1000 maka:1000 X 200 = 200.000)
  4. ENAM DEWA x 6666 harga jackpot yang anda beli
      (contoh:anda membeli 1000 maka:1000 X 6666 = 6.666.000)

Demikian adalah penjelasan dari Multi Jackpot www.domino88.asia terima kasih dan selamat bermain salam hoki dari kami

Ceme Jackpot Winner

TOP ENAM DEWA
No.TanggalNamaPriceWin
126/02 12:57DM166294murni enam666,600
226/02 12:57ENGGAR66murni enam666,600
326/02 12:16TAKYEHmurni enam3,333,000
426/02 11:55DEKUCHER78murni enam6,666,000
526/02 11:52GAKATAmurni enam3,333,000
TOP BALAK
No.TanggalNamaPriceWin
126/02 12:59DUDUN921balak200,000
226/02 12:59F64220A4balak20,000
326/02 12:57VINAWAEbalak200,000
426/02 12:57GOTEM008balak200,000
526/02 12:56AMSRI1986balak20,000
LATEST JACKPOT
No.TanggalNamaPriceWin
126/02 13:00ALAMIL37murni kecil50,000
226/02 12:59BARAELLOYZmurni besar50,000
326/02 12:59RKZWMT8HILmurni kecil50,000
426/02 12:59ELXTILJ7DHmurni kecil50,000
526/02 12:59CEPOGEMmurni kecil50,000
626/02 12:59DUDUN921balak200,000
726/02 12:59F64220A4balak20,000
826/02 12:58HUTAURUK99murni kecil50,000
926/02 12:58ARCHER50murni besar25,000
1026/02 12:58LEN82murni besar50,000
1126/02 12:58DUDUN921murni kecil50,000
1226/02 12:58F64220A4murni kecil5,000
1326/02 12:58EMBUT23murni besar50,000
1426/02 12:58CIKOLE99murni besar25,000
1526/02 12:58VRZCDO9824murni kecil5,000
1626/02 12:58GURAUANmurni kecil5,000
1726/02 12:58ARA280312murni kecil25,000
1826/02 12:58BARAELLOYZmurni kecil50,000
1926/02 12:57GORO89murni kecil50,000
2026/02 12:57SUCI669murni kecil5,000
2126/02 12:57VINAWAEbalak200,000
2226/02 12:57GOTEM008balak200,000
2326/02 12:57KINGFBOmurni kecil5,000
2426/02 12:57DM166294murni enam666,600
2526/02 12:57ENGGAR66murni enam666,600
2626/02 12:57AG93murni kecil50,000
2726/02 12:57BNI20000murni kecil25,000
2826/02 12:56AMSRI1986balak20,000
2926/02 12:56LANCEMEbalak200,000
3026/02 12:56TULO123balak200,000
3126/02 12:56GECOOLmurni besar5,000
3226/02 12:56ARCHER50murni kecil25,000
3326/02 12:56JAMSIR27murni kecil5,000
3426/02 12:55B_21RRbalak20,000
3526/02 12:55SWEE70murni kecil50,000
3626/02 12:55BER21ANG71murni besar5,000
3726/02 12:55BER21ANG71balak20,000
3826/02 12:55DMAX05balak100,000
3926/02 12:55J4IPmurni kecil50,000
4026/02 12:55KIMC11Lmurni kecil25,000
4126/02 12:54TAAUN01murni besar50,000
4226/02 12:54BARED88murni kecil50,000
4326/02 12:54GECOOLmurni kecil5,000
4426/02 12:54LUYUL234murni kecil50,000
4526/02 12:54B_21RRbalak20,000
4626/02 12:54JIMEX86murni kecil50,000
4726/02 12:54RODRODbalak200,000
4826/02 12:54GAGAK09balak200,000
4926/02 12:54J4IPbalak200,000
5026/02 12:54LONCOTmurni kecil50,000
Dewa.FM